Location: Unnamed
(42.1164°N, 2.7652°E)
Time: 19:23:11
(UTC+02:00)

ISS - Pass Details

Date: 09 May 2021
Orbit: 417 x 422 km, 51.6° (Epoch: 14 June)

Event Time Altitude Azimuth Distance (km) Brightness Sun altitude
Exits shadow 03:34:44 17° 333° (NNW) 1,142 -1.2 -25.4°
Maximum altitude 03:35:26 18° 350° (N) 1,104 -1.1 -25.3°
Drops below altitude 10° 03:37:53 10° 36° (NE) 1,510 0.1 -25.1°
Sets 03:40:27 0° 56° (NE) 2,377 1.1 -24.9°
